owner,sensor,date,latitude,longitude,vertical_datum,sea_water_temperature,qcFlag 
WAVCIS,ioos:station:WAVCIS:CSI06:1,2015-12-01T00:00:00Z,28.8667,-90.4833,100.0,22.21,11111222 
WAVCIS,ioos:station:WAVCIS:CSI06:1,2015-12-01T01:00:00Z,28.8667,-90.4833,100.0,22.21,11111222 
WAVCIS,ioos:station:WAVCIS:CSI06:1,2015-12-01T02:00:00Z,28.8667,-90.4833,100.0,22.25,11111222 
WAVCIS,ioos:station:WAVCIS:CSI06:1,2015-12-01T03:00:00Z,28.8667,-90.4833,100.0,22.42,11111222 
WAVCIS,ioos:station:WAVCIS:CSI06:1,2015-12-01T04:00:00Z,28.8667,-90.4833,100.0,22.33,11111222 
WAVCIS,ioos:station:WAVCIS:CSI06:1,2015-12-01T05:00:00Z,28.8667,-90.4833,100.0,22.25,11111222 
WAVCIS,ioos:station:WAVCIS:CSI06:1,2015-12-01T06:00:00Z,28.8667,-90.4833,100.0,22.1,11111222 
WAVCIS,ioos:station:WAVCIS:CSI06:1,2015-12-01T07:00:00Z,28.8667,-90.4833,100.0,22.01,11111222 
WAVCIS,ioos:station:WAVCIS:CSI06:1,2015-12-01T08:00:00Z,28.8667,-90.4833,100.0,21.89,11111222 
WAVCIS,ioos:station:WAVCIS:CSI06:1,2015-12-01T09:00:00Z,28.8667,-90.4833,100.0,21.88,11111222 
WAVCIS,ioos:station:WAVCIS:CSI06:1,2015-12-01T10:00:00Z,28.8667,-90.4833,100.0,21.9,11111222 
WAVCIS,ioos:station:WAVCIS:CSI06:1,2015-12-01T11:00:00Z,28.8667,-90.4833,100.0,21.92,11111222 
WAVCIS,ioos:station:WAVCIS:CSI06:1,2015-12-01T12:00:00Z,28.8667,-90.4833,100.0,21.94,11111222 
WAVCIS,ioos:station:WAVCIS:CSI06:1,2015-12-01T13:00:00Z,28.8667,-90.4833,100.0,21.91,11111222 
WAVCIS,ioos:station:WAVCIS:CSI06:1,2015-12-01T14:00:00Z,28.8667,-90.4833,100.0,21.89,11111222 
WAVCIS,ioos:station:WAVCIS:CSI06:1,2015-12-01T15:00:00Z,28.8667,-90.4833,100.0,21.88,11111222 
WAVCIS,ioos:station:WAVCIS:CSI06:1,2015-12-01T16:00:00Z,28.8667,-90.4833,100.0,21.9,11111222 
WAVCIS,ioos:station:WAVCIS:CSI06:1,2015-12-01T17:00:00Z,28.8667,-90.4833,100.0,21.99,11111222 
WAVCIS,ioos:station:WAVCIS:CSI06:1,2015-12-01T18:00:00Z,28.8667,-90.4833,100.0,21.98,11111222 
WAVCIS,ioos:station:WAVCIS:CSI06:1,2015-12-01T19:00:00Z,28.8667,-90.4833,100.0,22.0,11111222 
WAVCIS,ioos:station:WAVCIS:CSI06:1,2015-12-01T20:00:00Z,28.8667,-90.4833,100.0,22.0,11111222 
WAVCIS,ioos:station:WAVCIS:CSI06:1,2015-12-01T21:00:00Z,28.8667,-90.4833,100.0,22.01,11111222 
WAVCIS,ioos:station:WAVCIS:CSI06:1,2015-12-01T22:00:00Z,28.8667,-90.4833,100.0,22.09,11111222 
WAVCIS,ioos:station:WAVCIS:CSI06:1,2015-12-01T23:00:00Z,28.8667,-90.4833,100.0,22.07,11111222 
WAVCIS,ioos:station:WAVCIS:CSI06:1,2015-12-02T00:00:00Z,28.8667,-90.4833,100.0,22.06,11111222 
WAVCIS,ioos:station:WAVCIS:CSI06:1,2015-12-02T01:00:00Z,28.8667,-90.4833,100.0,22.06,11111222 
WAVCIS,ioos:station:WAVCIS:CSI06:1,2015-12-02T02:00:00Z,28.8667,-90.4833,100.0,22.06,11111222 
WAVCIS,ioos:station:WAVCIS:CSI06:1,2015-12-02T03:00:00Z,28.8667,-90.4833,100.0,22.2,11111222 
WAVCIS,ioos:station:WAVCIS:CSI06:1,2015-12-02T04:00:00Z,28.8667,-90.4833,100.0,22.28,11111222 
WAVCIS,ioos:station:WAVCIS:CSI06:1,2015-12-02T05:00:00Z,28.8667,-90.4833,100.0,22.44,11111222 
WAVCIS,ioos:station:WAVCIS:CSI06:1,2015-12-02T06:00:00Z,28.8667,-90.4833,100.0,22.66,11111222 
WAVCIS,ioos:station:WAVCIS:CSI06:1,2015-12-02T07:00:00Z,28.8667,-90.4833,100.0,22.64,11111222 
WAVCIS,ioos:station:WAVCIS:CSI06:1,2015-12-02T08:00:00Z,28.8667,-90.4833,100.0,22.55,11111222 
WAVCIS,ioos:station:WAVCIS:CSI06:1,2015-12-02T09:00:00Z,28.8667,-90.4833,100.0,22.55,11111222 
WAVCIS,ioos:station:WAVCIS:CSI06:1,2015-12-02T10:00:00Z,28.8667,-90.4833,100.0,22.63,11111222 
WAVCIS,ioos:station:WAVCIS:CSI06:1,2015-12-02T11:00:00Z,28.8667,-90.4833,100.0,22.58,11111222 
WAVCIS,ioos:station:WAVCIS:CSI06:1,2015-12-02T12:00:00Z,28.8667,-90.4833,100.0,22.34,11111222 
WAVCIS,ioos:station:WAVCIS:CSI06:1,2015-12-02T13:00:00Z,28.8667,-90.4833,100.0,22.3,11111222 
WAVCIS,ioos:station:WAVCIS:CSI06:1,2015-12-02T14:00:00Z,28.8667,-90.4833,100.0,22.32,11111222 
WAVCIS,ioos:station:WAVCIS:CSI06:1,2015-12-02T15:00:00Z,28.8667,-90.4833,100.0,22.36,11111222 
WAVCIS,ioos:station:WAVCIS:CSI06:1,2015-12-02T16:00:00Z,28.8667,-90.4833,100.0,22.37,11111222 
WAVCIS,ioos:station:WAVCIS:CSI06:1,2015-12-02T17:00:00Z,28.8667,-90.4833,100.0,22.03,11111222 
WAVCIS,ioos:station:WAVCIS:CSI06:1,2015-12-02T18:00:00Z,28.8667,-90.4833,100.0,21.8,11111222 
WAVCIS,ioos:station:WAVCIS:CSI06:1,2015-12-02T19:00:00Z,28.8667,-90.4833,100.0,21.67,11111222 
WAVCIS,ioos:station:WAVCIS:CSI06:1,2015-12-02T20:00:00Z,28.8667,-90.4833,100.0,21.63,11111222 
WAVCIS,ioos:station:WAVCIS:CSI06:1,2015-12-02T21:00:00Z,28.8667,-90.4833,100.0,21.51,11111222 
WAVCIS,ioos:station:WAVCIS:CSI06:1,2015-12-02T22:00:00Z,28.8667,-90.4833,100.0,21.41,11111222 
WAVCIS,ioos:station:WAVCIS:CSI06:1,2015-12-02T23:00:00Z,28.8667,-90.4833,100.0,21.36,11111222 
WAVCIS,ioos:station:WAVCIS:CSI06:1,2015-12-03T00:00:00Z,28.8667,-90.4833,100.0,21.37,11111222 
WAVCIS,ioos:station:WAVCIS:CSI06:1,2015-12-03T01:00:00Z,28.8667,-90.4833,100.0,21.42,11111222 
WAVCIS,ioos:station:WAVCIS:CSI06:1,2015-12-03T02:00:00Z,28.8667,-90.4833,100.0,21.47,11111222 
WAVCIS,ioos:station:WAVCIS:CSI06:1,2015-12-03T03:00:00Z,28.8667,-90.4833,100.0,21.4,11111222 
WAVCIS,ioos:station:WAVCIS:CSI06:1,2015-12-03T04:00:00Z,28.8667,-90.4833,100.0,21.3,11111222 
WAVCIS,ioos:station:WAVCIS:CSI06:1,2015-12-03T05:00:00Z,28.8667,-90.4833,100.0,21.2,11111222 
WAVCIS,ioos:station:WAVCIS:CSI06:1,2015-12-03T06:00:00Z,28.8667,-90.4833,100.0,21.12,11111222 
WAVCIS,ioos:station:WAVCIS:CSI06:1,2015-12-03T07:00:00Z,28.8667,-90.4833,100.0,20.91,11111222 
WAVCIS,ioos:station:WAVCIS:CSI06:1,2015-12-03T08:00:00Z,28.8667,-90.4833,100.0,20.74,11111222 
WAVCIS,ioos:station:WAVCIS:CSI06:1,2015-12-03T09:00:00Z,28.8667,-90.4833,100.0,20.6,11111222 
WAVCIS,ioos:station:WAVCIS:CSI06:1,2015-12-03T10:00:00Z,28.8667,-90.4833,100.0,20.61,11111222 
WAVCIS,ioos:station:WAVCIS:CSI06:1,2015-12-03T11:00:00Z,28.8667,-90.4833,100.0,20.58,11111222 
WAVCIS,ioos:station:WAVCIS:CSI06:1,2015-12-03T12:00:00Z,28.8667,-90.4833,100.0,20.57,11111222 
WAVCIS,ioos:station:WAVCIS:CSI06:1,2015-12-03T13:00:00Z,28.8667,-90.4833,100.0,20.49,11111222 
WAVCIS,ioos:station:WAVCIS:CSI06:1,2015-12-03T14:00:00Z,28.8667,-90.4833,100.0,20.46,11111222 
WAVCIS,ioos:station:WAVCIS:CSI06:1,2015-12-03T15:00:00Z,28.8667,-90.4833,100.0,20.51,11111222 
WAVCIS,ioos:station:WAVCIS:CSI06:1,2015-12-03T16:00:00Z,28.8667,-90.4833,100.0,20.69,11111222 
WAVCIS,ioos:station:WAVCIS:CSI06:1,2015-12-03T17:00:00Z,28.8667,-90.4833,100.0,20.71,11111222 
WAVCIS,ioos:station:WAVCIS:CSI06:1,2015-12-03T18:00:00Z,28.8667,-90.4833,100.0,20.73,11111222 
WAVCIS,ioos:station:WAVCIS:CSI06:1,2015-12-03T19:00:00Z,28.8667,-90.4833,100.0,20.67,11111222 
WAVCIS,ioos:station:WAVCIS:CSI06:1,2015-12-03T20:00:00Z,28.8667,-90.4833,100.0,20.73,11111222 
WAVCIS,ioos:station:WAVCIS:CSI06:1,2015-12-03T21:00:00Z,28.8667,-90.4833,100.0,20.71,11111222 
WAVCIS,ioos:station:WAVCIS:CSI06:1,2015-12-03T22:00:00Z,28.8667,-90.4833,100.0,20.64,11111222 
WAVCIS,ioos:station:WAVCIS:CSI06:1,2015-12-03T23:00:00Z,28.8667,-90.4833,100.0,20.6,11111222 
WAVCIS,ioos:station:WAVCIS:CSI06:1,2015-12-04T00:00:00Z,28.8667,-90.4833,100.0,20.56,11111222 
WAVCIS,ioos:station:WAVCIS:CSI06:1,2015-12-04T01:00:00Z,28.8667,-90.4833,100.0,20.56,11111222 
WAVCIS,ioos:station:WAVCIS:CSI06:1,2015-12-04T02:00:00Z,28.8667,-90.4833,100.0,20.6,11111222 
WAVCIS,ioos:station:WAVCIS:CSI06:1,2015-12-04T03:00:00Z,28.8667,-90.4833,100.0,20.62,11111222 
WAVCIS,ioos:station:WAVCIS:CSI06:1,2015-12-04T04:00:00Z,28.8667,-90.4833,100.0,20.55,11111222 
WAVCIS,ioos:station:WAVCIS:CSI06:1,2015-12-04T05:00:00Z,28.8667,-90.4833,100.0,20.48,11111222 
WAVCIS,ioos:station:WAVCIS:CSI06:1,2015-12-04T06:00:00Z,28.8667,-90.4833,100.0,20.48,11111222 
WAVCIS,ioos:station:WAVCIS:CSI06:1,2015-12-04T07:00:00Z,28.8667,-90.4833,100.0,20.48,11111222 
WAVCIS,ioos:station:WAVCIS:CSI06:1,2015-12-04T08:00:00Z,28.8667,-90.4833,100.0,20.51,11111222 
WAVCIS,ioos:station:WAVCIS:CSI06:1,2015-12-04T09:00:00Z,28.8667,-90.4833,100.0,20.66,11111222 
WAVCIS,ioos:station:WAVCIS:CSI06:1,2015-12-04T10:00:00Z,28.8667,-90.4833,100.0,20.54,11111222 
WAVCIS,ioos:station:WAVCIS:CSI06:1,2015-12-04T11:00:00Z,28.8667,-90.4833,100.0,20.49,11111222 
WAVCIS,ioos:station:WAVCIS:CSI06:1,2015-12-04T12:00:00Z,28.8667,-90.4833,100.0,20.63,11111222 
WAVCIS,ioos:station:WAVCIS:CSI06:1,2015-12-04T13:00:00Z,28.8667,-90.4833,100.0,20.42,11111222 
WAVCIS,ioos:station:WAVCIS:CSI06:1,2015-12-04T14:00:00Z,28.8667,-90.4833,100.0,20.13,11111222 
WAVCIS,ioos:station:WAVCIS:CSI06:1,2015-12-04T15:00:00Z,28.8667,-90.4833,100.0,20.35,11111222 
WAVCIS,ioos:station:WAVCIS:CSI06:1,2015-12-04T16:00:00Z,28.8667,-90.4833,100.0,20.6,11111222 
WAVCIS,ioos:station:WAVCIS:CSI06:1,2015-12-04T17:00:00Z,28.8667,-90.4833,100.0,20.71,11111222 
WAVCIS,ioos:station:WAVCIS:CSI06:1,2015-12-04T18:00:00Z,28.8667,-90.4833,100.0,20.25,11111222 
WAVCIS,ioos:station:WAVCIS:CSI06:1,2015-12-04T19:00:00Z,28.8667,-90.4833,100.0,20.44,11111222 
WAVCIS,ioos:station:WAVCIS:CSI06:1,2015-12-04T20:00:00Z,28.8667,-90.4833,100.0,20.57,11111222 
WAVCIS,ioos:station:WAVCIS:CSI06:1,2015-12-04T21:00:00Z,28.8667,-90.4833,100.0,20.63,11111222 
WAVCIS,ioos:station:WAVCIS:CSI06:1,2015-12-04T22:00:00Z,28.8667,-90.4833,100.0,20.75,11111222 
WAVCIS,ioos:station:WAVCIS:CSI06:1,2015-12-04T23:00:00Z,28.8667,-90.4833,100.0,20.93,11111222 
WAVCIS,ioos:station:WAVCIS:CSI06:1,2015-12-05T00:00:00Z,28.8667,-90.4833,100.0,20.92,11111222 
WAVCIS,ioos:station:WAVCIS:CSI06:1,2015-12-05T01:00:00Z,28.8667,-90.4833,100.0,21.07,11111222 
WAVCIS,ioos:station:WAVCIS:CSI06:1,2015-12-05T02:00:00Z,28.8667,-90.4833,100.0,21.07,11111222 
WAVCIS,ioos:station:WAVCIS:CSI06:1,2015-12-05T03:00:00Z,28.8667,-90.4833,100.0,21.08,11111222 
WAVCIS,ioos:station:WAVCIS:CSI06:1,2015-12-05T04:00:00Z,28.8667,-90.4833,100.0,21.1,11111222 
WAVCIS,ioos:station:WAVCIS:CSI06:1,2015-12-05T05:00:00Z,28.8667,-90.4833,100.0,21.12,11111222 
WAVCIS,ioos:station:WAVCIS:CSI06:1,2015-12-05T06:00:00Z,28.8667,-90.4833,100.0,21.12,11111222 
WAVCIS,ioos:station:WAVCIS:CSI06:1,2015-12-05T07:00:00Z,28.8667,-90.4833,100.0,20.69,11111222 
WAVCIS,ioos:station:WAVCIS:CSI06:1,2015-12-05T08:00:00Z,28.8667,-90.4833,100.0,20.71,11111222 
WAVCIS,ioos:station:WAVCIS:CSI06:1,2015-12-05T09:00:00Z,28.8667,-90.4833,100.0,20.84,11111222 
WAVCIS,ioos:station:WAVCIS:CSI06:1,2015-12-05T10:00:00Z,28.8667,-90.4833,100.0,20.91,11111222 
WAVCIS,ioos:station:WAVCIS:CSI06:1,2015-12-05T11:00:00Z,28.8667,-90.4833,100.0,20.96,11111222 
WAVCIS,ioos:station:WAVCIS:CSI06:1,2015-12-05T12:00:00Z,28.8667,-90.4833,100.0,20.88,11111222 
WAVCIS,ioos:station:WAVCIS:CSI06:1,2015-12-05T13:00:00Z,28.8667,-90.4833,100.0,20.11,11111222 
WAVCIS,ioos:station:WAVCIS:CSI06:1,2015-12-05T14:00:00Z,28.8667,-90.4833,100.0,20.2,11111222 
WAVCIS,ioos:station:WAVCIS:CSI06:1,2015-12-05T15:00:00Z,28.8667,-90.4833,100.0,20.18,11111222 
WAVCIS,ioos:station:WAVCIS:CSI06:1,2015-12-05T16:00:00Z,28.8667,-90.4833,100.0,20.23,11111222 
WAVCIS,ioos:station:WAVCIS:CSI06:1,2015-12-05T17:00:00Z,28.8667,-90.4833,100.0,20.27,11111222 
WAVCIS,ioos:station:WAVCIS:CSI06:1,2015-12-05T18:00:00Z,28.8667,-90.4833,100.0,20.35,11111222 
WAVCIS,ioos:station:WAVCIS:CSI06:1,2015-12-05T19:00:00Z,28.8667,-90.4833,100.0,20.41,11111222 
WAVCIS,ioos:station:WAVCIS:CSI06:1,2015-12-05T20:00:00Z,28.8667,-90.4833,100.0,20.46,11111222 
WAVCIS,ioos:station:WAVCIS:CSI06:1,2015-12-05T21:00:00Z,28.8667,-90.4833,100.0,20.47,11111222 
WAVCIS,ioos:station:WAVCIS:CSI06:1,2015-12-05T22:00:00Z,28.8667,-90.4833,100.0,20.47,11111222 
WAVCIS,ioos:station:WAVCIS:CSI06:1,2015-12-05T23:00:00Z,28.8667,-90.4833,100.0,20.49,11111222 
WAVCIS,ioos:station:WAVCIS:CSI06:1,2015-12-06T00:00:00Z,28.8667,-90.4833,100.0,20.5,11111222 
WAVCIS,ioos:station:WAVCIS:CSI06:1,2015-12-06T01:00:00Z,28.8667,-90.4833,100.0,20.56,11111222 
WAVCIS,ioos:station:WAVCIS:CSI06:1,2015-12-06T02:00:00Z,28.8667,-90.4833,100.0,20.61,11111222 
WAVCIS,ioos:station:WAVCIS:CSI06:1,2015-12-06T03:00:00Z,28.8667,-90.4833,100.0,20.63,11111222 
WAVCIS,ioos:station:WAVCIS:CSI06:1,2015-12-06T04:00:00Z,28.8667,-90.4833,100.0,20.64,11111222 
WAVCIS,ioos:station:WAVCIS:CSI06:1,2015-12-06T05:00:00Z,28.8667,-90.4833,100.0,20.53,11111222 
WAVCIS,ioos:station:WAVCIS:CSI06:1,2015-12-06T06:00:00Z,28.8667,-90.4833,100.0,20.57,11111222 
WAVCIS,ioos:station:WAVCIS:CSI06:1,2015-12-06T07:00:00Z,28.8667,-90.4833,100.0,20.63,11111222 
WAVCIS,ioos:station:WAVCIS:CSI06:1,2015-12-06T08:00:00Z,28.8667,-90.4833,100.0,20.56,11111222 
WAVCIS,ioos:station:WAVCIS:CSI06:1,2015-12-06T09:00:00Z,28.8667,-90.4833,100.0,20.62,11111222 
WAVCIS,ioos:station:WAVCIS:CSI06:1,2015-12-06T10:00:00Z,28.8667,-90.4833,100.0,20.37,11111222 
WAVCIS,ioos:station:WAVCIS:CSI06:1,2015-12-06T11:00:00Z,28.8667,-90.4833,100.0,20.44,11111222 
WAVCIS,ioos:station:WAVCIS:CSI06:1,2015-12-06T12:00:00Z,28.8667,-90.4833,100.0,20.3,11111222 
WAVCIS,ioos:station:WAVCIS:CSI06:1,2015-12-06T13:00:00Z,28.8667,-90.4833,100.0,20.26,11111222 
WAVCIS,ioos:station:WAVCIS:CSI06:1,2015-12-06T14:00:00Z,28.8667,-90.4833,100.0,20.17,11111222 
WAVCIS,ioos:station:WAVCIS:CSI06:1,2015-12-06T15:00:00Z,28.8667,-90.4833,100.0,20.16,11111222 
WAVCIS,ioos:station:WAVCIS:CSI06:1,2015-12-06T16:00:00Z,28.8667,-90.4833,100.0,20.19,11111222 
WAVCIS,ioos:station:WAVCIS:CSI06:1,2015-12-06T17:00:00Z,28.8667,-90.4833,100.0,20.13,11111222 
WAVCIS,ioos:station:WAVCIS:CSI06:1,2015-12-06T18:00:00Z,28.8667,-90.4833,100.0,20.3,11111222 
WAVCIS,ioos:station:WAVCIS:CSI06:1,2015-12-06T19:00:00Z,28.8667,-90.4833,100.0,20.29,11111222 
WAVCIS,ioos:station:WAVCIS:CSI06:1,2015-12-06T20:00:00Z,28.8667,-90.4833,100.0,20.26,11111222 
WAVCIS,ioos:station:WAVCIS:CSI06:1,2015-12-06T21:00:00Z,28.8667,-90.4833,100.0,20.25,11111222 
WAVCIS,ioos:station:WAVCIS:CSI06:1,2015-12-06T22:00:00Z,28.8667,-90.4833,100.0,20.28,11111222 
WAVCIS,ioos:station:WAVCIS:CSI06:1,2015-12-06T23:00:00Z,28.8667,-90.4833,100.0,20.28,11111222 
WAVCIS,ioos:station:WAVCIS:CSI06:1,2015-12-07T00:00:00Z,28.8667,-90.4833,100.0,20.26,11111222 
WAVCIS,ioos:station:WAVCIS:CSI06:1,2015-12-07T01:00:00Z,28.8667,-90.4833,100.0,20.2,11111222 
WAVCIS,ioos:station:WAVCIS:CSI06:1,2015-12-07T02:00:00Z,28.8667,-90.4833,100.0,20.17,11111222 
WAVCIS,ioos:station:WAVCIS:CSI06:1,2015-12-07T03:00:00Z,28.8667,-90.4833,100.0,20.14,11111222 
WAVCIS,ioos:station:WAVCIS:CSI06:1,2015-12-07T04:00:00Z,28.8667,-90.4833,100.0,20.16,11111222 
WAVCIS,ioos:station:WAVCIS:CSI06:1,2015-12-07T05:00:00Z,28.8667,-90.4833,100.0,20.18,11111222 
WAVCIS,ioos:station:WAVCIS:CSI06:1,2015-12-07T06:00:00Z,28.8667,-90.4833,100.0,20.12,11111222 
WAVCIS,ioos:station:WAVCIS:CSI06:1,2015-12-07T07:00:00Z,28.8667,-90.4833,100.0,20.1,11111222 
WAVCIS,ioos:station:WAVCIS:CSI06:1,2015-12-07T08:00:00Z,28.8667,-90.4833,100.0,20.07,11111222 
WAVCIS,ioos:station:WAVCIS:CSI06:1,2015-12-07T09:00:00Z,28.8667,-90.4833,100.0,20.05,11111222 
WAVCIS,ioos:station:WAVCIS:CSI06:1,2015-12-07T10:00:00Z,28.8667,-90.4833,100.0,20.06,11111222 
WAVCIS,ioos:station:WAVCIS:CSI06:1,2015-12-07T11:00:00Z,28.8667,-90.4833,100.0,19.95,11111222 
WAVCIS,ioos:station:WAVCIS:CSI06:1,2015-12-07T12:00:00Z,28.8667,-90.4833,100.0,19.93,11111222 
WAVCIS,ioos:station:WAVCIS:CSI06:1,2015-12-07T13:00:00Z,28.8667,-90.4833,100.0,19.87,11111222 
WAVCIS,ioos:station:WAVCIS:CSI06:1,2015-12-07T14:00:00Z,28.8667,-90.4833,100.0,19.81,11111222 
WAVCIS,ioos:station:WAVCIS:CSI06:1,2015-12-07T15:00:00Z,28.8667,-90.4833,100.0,19.77,11111222 
WAVCIS,ioos:station:WAVCIS:CSI06:1,2015-12-07T16:00:00Z,28.8667,-90.4833,100.0,19.76,11111222 
WAVCIS,ioos:station:WAVCIS:CSI06:1,2015-12-07T17:00:00Z,28.8667,-90.4833,100.0,19.87,11111222 
WAVCIS,ioos:station:WAVCIS:CSI06:1,2015-12-07T18:00:00Z,28.8667,-90.4833,100.0,20.03,11111222 
WAVCIS,ioos:station:WAVCIS:CSI06:1,2015-12-07T19:00:00Z,28.8667,-90.4833,100.0,20.22,11111222 
WAVCIS,ioos:station:WAVCIS:CSI06:1,2015-12-07T20:00:00Z,28.8667,-90.4833,100.0,20.22,11111222 
WAVCIS,ioos:station:WAVCIS:CSI06:1,2015-12-07T21:00:00Z,28.8667,-90.4833,100.0,20.22,11111222 
WAVCIS,ioos:station:WAVCIS:CSI06:1,2015-12-07T22:00:00Z,28.8667,-90.4833,100.0,20.14,11111222 
WAVCIS,ioos:station:WAVCIS:CSI06:1,2015-12-07T23:00:00Z,28.8667,-90.4833,100.0,20.26,11111222 
WAVCIS,ioos:station:WAVCIS:CSI06:1,2015-12-08T00:00:00Z,28.8667,-90.4833,100.0,20.33,11111222 
WAVCIS,ioos:station:WAVCIS:CSI06:1,2015-12-08T01:00:00Z,28.8667,-90.4833,100.0,20.34,11111222 
WAVCIS,ioos:station:WAVCIS:CSI06:1,2015-12-08T02:00:00Z,28.8667,-90.4833,100.0,20.41,11111222 
WAVCIS,ioos:station:WAVCIS:CSI06:1,2015-12-08T03:00:00Z,28.8667,-90.4833,100.0,20.42,11111222 
WAVCIS,ioos:station:WAVCIS:CSI06:1,2015-12-08T04:00:00Z,28.8667,-90.4833,100.0,20.39,11111222 
WAVCIS,ioos:station:WAVCIS:CSI06:1,2015-12-08T05:00:00Z,28.8667,-90.4833,100.0,20.19,11111222 
WAVCIS,ioos:station:WAVCIS:CSI06:1,2015-12-08T06:00:00Z,28.8667,-90.4833,100.0,20.25,11111222 
WAVCIS,ioos:station:WAVCIS:CSI06:1,2015-12-08T07:00:00Z,28.8667,-90.4833,100.0,20.32,11111222 
WAVCIS,ioos:station:WAVCIS:CSI06:1,2015-12-08T08:00:00Z,28.8667,-90.4833,100.0,20.11,11111222 
WAVCIS,ioos:station:WAVCIS:CSI06:1,2015-12-08T09:00:00Z,28.8667,-90.4833,100.0,20.22,11111222 
WAVCIS,ioos:station:WAVCIS:CSI06:1,2015-12-08T10:00:00Z,28.8667,-90.4833,100.0,20.18,11111222 
WAVCIS,ioos:station:WAVCIS:CSI06:1,2015-12-08T11:00:00Z,28.8667,-90.4833,100.0,19.91,11111222 
WAVCIS,ioos:station:WAVCIS:CSI06:1,2015-12-08T12:00:00Z,28.8667,-90.4833,100.0,19.98,11111222 
WAVCIS,ioos:station:WAVCIS:CSI06:1,2015-12-08T13:00:00Z,28.8667,-90.4833,100.0,19.8,11111222 
WAVCIS,ioos:station:WAVCIS:CSI06:1,2015-12-08T14:00:00Z,28.8667,-90.4833,100.0,19.79,11111222 
WAVCIS,ioos:station:WAVCIS:CSI06:1,2015-12-08T15:00:00Z,28.8667,-90.4833,100.0,19.65,11111222 
WAVCIS,ioos:station:WAVCIS:CSI06:1,2015-12-08T16:00:00Z,28.8667,-90.4833,100.0,19.62,11111222 
WAVCIS,ioos:station:WAVCIS:CSI06:1,2015-12-08T17:00:00Z,28.8667,-90.4833,100.0,19.57,11111222 
WAVCIS,ioos:station:WAVCIS:CSI06:1,2015-12-08T18:00:00Z,28.8667,-90.4833,100.0,19.6,11111222 
WAVCIS,ioos:station:WAVCIS:CSI06:1,2015-12-08T19:00:00Z,28.8667,-90.4833,100.0,19.69,11111222 
WAVCIS,ioos:station:WAVCIS:CSI06:1,2015-12-08T20:00:00Z,28.8667,-90.4833,100.0,19.7,11111222 
WAVCIS,ioos:station:WAVCIS:CSI06:1,2015-12-08T21:00:00Z,28.8667,-90.4833,100.0,19.7,11111222 
WAVCIS,ioos:station:WAVCIS:CSI06:1,2015-12-08T22:00:00Z,28.8667,-90.4833,100.0,19.67,11111222 
WAVCIS,ioos:station:WAVCIS:CSI06:1,2015-12-08T23:00:00Z,28.8667,-90.4833,100.0,19.66,11111222 
WAVCIS,ioos:station:WAVCIS:CSI06:1,2015-12-09T00:00:00Z,28.8667,-90.4833,100.0,19.66,11111222 
WAVCIS,ioos:station:WAVCIS:CSI06:1,2015-12-09T01:00:00Z,28.8667,-90.4833,100.0,19.59,11111222 
WAVCIS,ioos:station:WAVCIS:CSI06:1,2015-12-09T02:00:00Z,28.8667,-90.4833,100.0,19.58,11111222 
WAVCIS,ioos:station:WAVCIS:CSI06:1,2015-12-09T03:00:00Z,28.8667,-90.4833,100.0,19.55,11111222 
WAVCIS,ioos:station:WAVCIS:CSI06:1,2015-12-09T04:00:00Z,28.8667,-90.4833,100.0,19.47,11111222 
WAVCIS,ioos:station:WAVCIS:CSI06:1,2015-12-09T05:00:00Z,28.8667,-90.4833,100.0,19.44,11111222 
WAVCIS,ioos:station:WAVCIS:CSI06:1,2015-12-09T06:00:00Z,28.8667,-90.4833,100.0,19.41,11111222 
WAVCIS,ioos:station:WAVCIS:CSI06:1,2015-12-09T07:00:00Z,28.8667,-90.4833,100.0,19.37,11111222 
WAVCIS,ioos:station:WAVCIS:CSI06:1,2015-12-09T08:00:00Z,28.8667,-90.4833,100.0,19.26,11111222 
WAVCIS,ioos:station:WAVCIS:CSI06:1,2015-12-09T09:00:00Z,28.8667,-90.4833,100.0,19.21,11111222 
WAVCIS,ioos:station:WAVCIS:CSI06:1,2015-12-09T10:00:00Z,28.8667,-90.4833,100.0,19.19,11111222 
WAVCIS,ioos:station:WAVCIS:CSI06:1,2015-12-09T11:00:00Z,28.8667,-90.4833,100.0,19.16,11111222 
WAVCIS,ioos:station:WAVCIS:CSI06:1,2015-12-09T12:00:00Z,28.8667,-90.4833,100.0,19.15,11111222 
WAVCIS,ioos:station:WAVCIS:CSI06:1,2015-12-09T13:00:00Z,28.8667,-90.4833,100.0,19.08,11111222 
WAVCIS,ioos:station:WAVCIS:CSI06:1,2015-12-09T14:00:00Z,28.8667,-90.4833,100.0,19.34,11111222 
WAVCIS,ioos:station:WAVCIS:CSI06:1,2015-12-09T15:00:00Z,28.8667,-90.4833,100.0,19.49,11111222 
WAVCIS,ioos:station:WAVCIS:CSI06:1,2015-12-09T16:00:00Z,28.8667,-90.4833,100.0,19.6,11111222 
WAVCIS,ioos:station:WAVCIS:CSI06:1,2015-12-09T17:00:00Z,28.8667,-90.4833,100.0,19.83,11111222 
WAVCIS,ioos:station:WAVCIS:CSI06:1,2015-12-09T18:00:00Z,28.8667,-90.4833,100.0,20.14,11111222 
WAVCIS,ioos:station:WAVCIS:CSI06:1,2015-12-09T19:00:00Z,28.8667,-90.4833,100.0,20.51,11111222 
WAVCIS,ioos:station:WAVCIS:CSI06:1,2015-12-09T20:00:00Z,28.8667,-90.4833,100.0,20.61,11111222 
WAVCIS,ioos:station:WAVCIS:CSI06:1,2015-12-09T21:00:00Z,28.8667,-90.4833,100.0,20.7,11111222 
WAVCIS,ioos:station:WAVCIS:CSI06:1,2015-12-09T22:00:00Z,28.8667,-90.4833,100.0,20.64,11111222 
WAVCIS,ioos:station:WAVCIS:CSI06:1,2015-12-09T23:00:00Z,28.8667,-90.4833,100.0,20.64,11111222 
WAVCIS,ioos:station:WAVCIS:CSI06:1,2015-12-10T00:00:00Z,28.8667,-90.4833,100.0,20.64,11111222 
WAVCIS,ioos:station:WAVCIS:CSI06:1,2015-12-10T01:00:00Z,28.8667,-90.4833,100.0,20.57,11111222 
WAVCIS,ioos:station:WAVCIS:CSI06:1,2015-12-10T02:00:00Z,28.8667,-90.4833,100.0,20.59,11111222 
WAVCIS,ioos:station:WAVCIS:CSI06:1,2015-12-10T03:00:00Z,28.8667,-90.4833,100.0,20.5,11111222 
WAVCIS,ioos:station:WAVCIS:CSI06:1,2015-12-10T04:00:00Z,28.8667,-90.4833,100.0,20.49,11111222 
WAVCIS,ioos:station:WAVCIS:CSI06:1,2015-12-10T05:00:00Z,28.8667,-90.4833,100.0,20.51,11111222 
WAVCIS,ioos:station:WAVCIS:CSI06:1,2015-12-10T06:00:00Z,28.8667,-90.4833,100.0,20.52,11111222 
WAVCIS,ioos:station:WAVCIS:CSI06:1,2015-12-10T07:00:00Z,28.8667,-90.4833,100.0,20.5,11111222 
WAVCIS,ioos:station:WAVCIS:CSI06:1,2015-12-10T08:00:00Z,28.8667,-90.4833,100.0,20.52,11111222 
WAVCIS,ioos:station:WAVCIS:CSI06:1,2015-12-10T09:00:00Z,28.8667,-90.4833,100.0,20.43,11111222 
WAVCIS,ioos:station:WAVCIS:CSI06:1,2015-12-10T10:00:00Z,28.8667,-90.4833,100.0,20.39,11111222 
WAVCIS,ioos:station:WAVCIS:CSI06:1,2015-12-10T11:00:00Z,28.8667,-90.4833,100.0,20.39,11111222 
WAVCIS,ioos:station:WAVCIS:CSI06:1,2015-12-10T12:00:00Z,28.8667,-90.4833,100.0,20.39,11111222 
WAVCIS,ioos:station:WAVCIS:CSI06:1,2015-12-10T13:00:00Z,28.8667,-90.4833,100.0,20.41,11111222 
WAVCIS,ioos:station:WAVCIS:CSI06:1,2015-12-10T14:00:00Z,28.8667,-90.4833,100.0,20.55,11111222 
WAVCIS,ioos:station:WAVCIS:CSI06:1,2015-12-10T15:00:00Z,28.8667,-90.4833,100.0,20.64,11111222 
WAVCIS,ioos:station:WAVCIS:CSI06:1,2015-12-10T16:00:00Z,28.8667,-90.4833,100.0,20.71,11111222 
WAVCIS,ioos:station:WAVCIS:CSI06:1,2015-12-10T17:00:00Z,28.8667,-90.4833,100.0,20.73,11111222 
WAVCIS,ioos:station:WAVCIS:CSI06:1,2015-12-10T18:00:00Z,28.8667,-90.4833,100.0,20.74,11111222 
WAVCIS,ioos:station:WAVCIS:CSI06:1,2015-12-10T19:00:00Z,28.8667,-90.4833,100.0,20.81,11111222 
WAVCIS,ioos:station:WAVCIS:CSI06:1,2015-12-10T20:00:00Z,28.8667,-90.4833,100.0,20.91,11111222 
WAVCIS,ioos:station:WAVCIS:CSI06:1,2015-12-10T21:00:00Z,28.8667,-90.4833,100.0,21.02,11111222 
WAVCIS,ioos:station:WAVCIS:CSI06:1,2015-12-10T22:00:00Z,28.8667,-90.4833,100.0,21.09,11111222 
WAVCIS,ioos:station:WAVCIS:CSI06:1,2015-12-10T23:00:00Z,28.8667,-90.4833,100.0,21.15,11111222 
WAVCIS,ioos:station:WAVCIS:CSI06:1,2015-12-11T00:00:00Z,28.8667,-90.4833,100.0,21.17,11111222 
WAVCIS,ioos:station:WAVCIS:CSI06:1,2015-12-11T01:00:00Z,28.8667,-90.4833,100.0,21.23,11111222 
WAVCIS,ioos:station:WAVCIS:CSI06:1,2015-12-11T02:00:00Z,28.8667,-90.4833,100.0,21.19,11111222 
WAVCIS,ioos:station:WAVCIS:CSI06:1,2015-12-11T03:00:00Z,28.8667,-90.4833,100.0,21.22,11111222 
WAVCIS,ioos:station:WAVCIS:CSI06:1,2015-12-11T04:00:00Z,28.8667,-90.4833,100.0,21.25,11111222 
WAVCIS,ioos:station:WAVCIS:CSI06:1,2015-12-11T05:00:00Z,28.8667,-90.4833,100.0,21.26,11111222 
WAVCIS,ioos:station:WAVCIS:CSI06:1,2015-12-11T06:00:00Z,28.8667,-90.4833,100.0,21.12,11111222 
WAVCIS,ioos:station:WAVCIS:CSI06:1,2015-12-11T07:00:00Z,28.8667,-90.4833,100.0,21.08,11111222 
WAVCIS,ioos:station:WAVCIS:CSI06:1,2015-12-11T08:00:00Z,28.8667,-90.4833,100.0,21.11,11111222 
WAVCIS,ioos:station:WAVCIS:CSI06:1,2015-12-11T09:00:00Z,28.8667,-90.4833,100.0,21.0,11111222 
WAVCIS,ioos:station:WAVCIS:CSI06:1,2015-12-11T10:00:00Z,28.8667,-90.4833,100.0,20.88,11111222 
WAVCIS,ioos:station:WAVCIS:CSI06:1,2015-12-11T11:00:00Z,28.8667,-90.4833,100.0,21.03,11111222 